Regional Weather Roundup
Issued by NWS

Home | Current Version | Previous Version | Graphics & Text | Print | Product List | Glossary On
Versions: 1 2 3 4 5 6 7 8 9 10 11 12 13 14 15 16 17 18 19 20 21 22 23 24 25 26 27 28 29 30 31 32 33 34 35 36 37 38 39 40 41 42 43 44 45 46 47 48 49 50
000
ASUS43 KMKX 021000
RWRWI

WISCONSIN REGIONAL WEATHER ROUNDUP
NATIONAL WEATHER SERVICE MILWAUKEE/SULLIVAN WI
500 AM CDT MON MAY 02 2016

NOTE: "FAIR" INDICATES FEW OR NO CLOUDS BELOW 12,000 FEET WITH NO
SIGNIFICANT WEATHER AND/OR OBSTRUCTIONS TO VISIBILITY.

WIZ001-002-006>008-014>016-023>028-021100-
NORTHWEST WISCONSIN

CITY           SKY/WX    TMP DP  RH WIND       PRES   REMARKS
SUPERIOR ARPT  PTCLDY    27  27 100 CALM      30.15S
ASHLAND        CLEAR     27  26  96 W3        30.15S
HAYWARD        CLEAR     29  26  89 N5        30.12F WCI  24
SIREN          CLEAR     31  29  94 CALM      30.12F
CUMBERLAND     CLEAR     34  32  93 CALM      30.11S
RICE LAKE      CLEAR     36  34  92 CALM      30.13S
CHETEK         CLEAR     36  34  92 CALM      30.12S
LADYSMITH      CLEAR     33  32  94 CALM      30.14S
EAU CLAIRE     NOT AVBL
MENOMONIE      CLEAR     37  31  79 CALM      30.11F
NEW RICHMOND   CLEAR     37  32  82 CALM      30.11S
OSCEOLA        CLEAR     35  35 100 CALM      30.14S
$$

WIZ003>005-009-010-017-018-021100-
NORTH CENTRAL WISCONSIN

CITY           SKY/WX    TMP DP  RH WIND       PRES   REMARKS
MANITOWISH WTR CLEAR     29  29 100 CALM      30.12R
ARBOR VITAE    PTCLDY    32  30  92 CALM      30.12S
WOODRUFF       PTCLDY    32  30  92 CALM      30.12S
RHINELANDER    CLEAR     28  25  88 W3        30.12S
EAGLE RIVER    CLEAR     29  29 100 CALM      30.12R FOG
LAND O LAKES   CLEAR     28  28  98 CALM      30.13S
PHILLIPS       CLEAR     31  31  98 CALM      30.12R
TOMAHAWK       CLEAR     29  28  95 CALM      30.13S
MEDFORD        CLEAR     34  33  98 NE3       30.11F
MERRILL        CLEAR     28  28 100 CALM      30.13S
$$

WIZ029-030-035-036-043>047-021100-
CENTRAL WISCONSIN

CITY           SKY/WX    TMP DP  RH WIND       PRES   REMARKS
WAUSAU         CLEAR     38  33  82 CALM      30.10F
MOSINEE        CLEAR     37  36  93 N7        30.12F WCI  32
MARSHFIELD     CLEAR     36  32  85 N3        30.10S
STEVENS POINT  CLEAR     30  29  96 CALM      30.12R
WAUPACA        PTCLDY    36  33  88 NW3       30.11F
WAUTOMA        CLEAR     31  31 100 CALM      30.12R
WISC RAPIDS    CLEAR     34  30  85 CALM      30.13R
CAMP DOUGLAS   NOT AVBL
$$

WIZ011>013-019>022-031-037>040-048>050-021100-
NORTHEAST WISCONSIN

CITY           SKY/WX    TMP DP  RH WIND       PRES   REMARKS
ANTIGO         CLEAR     32  31  96 CALM      30.12R
SHAWANO        CLEAR     38  32  78 CALM      30.11S
OCONTO         CLEAR     32  32 100 W3        30.10S
STURGEON BAY   CLEAR     39  34  81 NW6       30.11S WCI  35
GREEN BAY      CLEAR     38  33  82 N7        30.10S WCI  33
MANITOWOC      NOT AVBL
APPLETON       CLEAR     37  32  81 N3        30.09S
CLINTONVILLE   CLEAR     36  32  87 CALM      30.11S
OSHKOSH        CLEAR     38  33  82 NW3       30.10S
$$

WIZ032>034-041-042-053>061-021100-
SOUTHWEST WISCONSIN

CITY           SKY/WX    TMP DP  RH WIND       PRES   REMARKS
LA CROSSE      CLEAR     39  35  86 SE3       30.12S
SPARTA         CLEAR     30  29  97 CALM      30.13S
VIROQUA        CLEAR     41  37  84 CALM      30.11S
BOSCOBEL       FOG       37  36  96 CALM      30.12S VSB 1/4
PRAIRIE DU CHI FOG       42  40  96 NW5       30.11F VSB 1/4
PLATTEVILLE    CLOUDY    44  43  95 N5        30.09S
$$

WIZ056-057-062-063-064-067-068-021100-
SOUTH CENTRAL WISCONSIN

CITY           SKY/WX    TMP DP  RH WIND       PRES   REMARKS
REEDSBURG      CLEAR     36  36 100 CALM      30.12R
BARABOO/DELLS  CLEAR     35  34  96 CALM      30.11R
LONE ROCK      NOT AVBL
MINERAL POINT  MOCLDY    43  41  93 N5        30.09F
MADISON        CLEAR     42  39  89 W3        30.10R
MIDDLETON      MOCLDY    44  40  88 NW5       30.10R
WATERTOWN      CLEAR     42  42 100 N5        30.07S
MONROE         MOCLDY    43  43 100 N8        30.06F
JANESVILLE     CLOUDY    46  45  93 N3        30.08R
$$

WIZ051-052-058>065-066-070>072-021100-
SOUTHEAST WISCONSIN

CITY           SKY/WX    TMP DP  RH WIND       PRES   REMARKS
MILWAUKEE      PTCLDY    41  37  86 N7        30.06S
WAUKESHA       CLEAR     41  36  81 N5        30.07F
MILWAUKEE/TIMM CLEAR     41  34  75 N7        30.07F
RACINE         CLEAR     40  37  89 N7        30.07S
BURLINGTON     CLOUDY    43  42  97 N5        30.05F
KENOSHA        CLOUDY    43  40  89 N9        30.04F
FOND DU LAC    CLEAR     38  36  92 W3        30.09S
SHEBOYGAN      CLEAR     38  33  82 N7        30.08F WCI  33
WEST BEND      CLEAR     39  36  87 CALM      30.08S
JUNEAU         CLEAR     41  38  88 N6        30.09S
$$

LSZ147-162-021100-
LAKE SUPERIOR

STATION/POSITION TIME  TEMP    WIND        PRES    WAVE
                       AIR SEA DIR/SP/G            HT/PER
                 (UTC) (F)     (DEG/KT/KT) (MB)    (FT/S)
W MID LAKE BUOY  0850   37 36   CALM  /  2 1021.2R   1/ 5
DEVILS ISLAND    0900   40      CALM  /  1 1021.5R
SAXON HARBOR     0900   30     190/  3/  4 1020.3S
$$

LMZ867-665-643>646-021100-
LAKE MICHIGAN

STATION/POSITION TIME  TEMP    WIND        PRES    WAVE
                       AIR SEA DIR/SP/G            HT/PER
                 (UTC) (F)     (DEG/KT/KT) (MB)    (FT/S)
CHAMBERS ISLAND  0900   40     310/  5/  6 1019.3S
N MID LAKE BUOY  0850   40 38  300/  6/  6 1018.6R   1
NORTHPORT PIER   0900   40     290/  7/ 11 1018.6F
KEWAUNEE LAKESHO 0900   39     310/  5/  5 1018.1R
SHEBOYGAN LAKESH 0900   44     350/ 12/ 14 1019.6R
PORT WASHINGTON  0900   45     360/  5/  7 1019.3S
S MID LAKE BUOY  0850   42 40   10/  8/ 10 1017.5R   2/ 5
KENOSHA   LAKESH 0900   45     360/  9/ 11 1017.6S
$$

TC  - TEMPERATURE IN CELSIUS
VSB - VISIBILITY IN STATUTE MILES
WCI - WIND CHILL INDEX
HX  - HEAT INDEX




USA.gov is the U.S. government's official web portal to all federal, state and local government web resources and services.